"Pseudo-MPEC" for P10OSQ1

Created 2019 Jun 15 19:08:44 UT using Find_Orb

Click here for an explanation of pseudo-MPECs

 
 Astrometry: 
     P10OSQ1  C2019 06 01$u1jF:/9H@'fVtng\2rll8DYVmsi!OY8:#^/2QW,XwbRl*i$V[pnF52
     P10OSQ1  C2019 06 01YOKL#n(?waW8?pGQG$8Z!fG*ULajv/I4P)(XHsZr8*?D+w\eR\RAF52
     P10OSQ1  C2019 06 01a\REU(Z+echv]Hnu,g?7UWq8/K3p+I-nXj(cUyMCudED9Q13C*hUF52
     P10OSQ1  C2019 06 09ZcGYep\r?:b!Wr*;PHaNbl9uiC=ixxRXEfCp5pXjMPE2FuZa#B-qF51
     P10OSQ1  C2019 06 09w`5@8gsq29:\;0q1Cb8MaJs6+AstrometryZ9'hUyeoh_.UXYAKMF51
     P10OSQ1  C2019 06 09$@8O+[kD.Rn(hy['^7Z#`cHWu'RGU0gm`s(+=6^1reiblMSQm(:9F51
     P10OSQ1  C2019 06 095wk6,VXSQ[!HL93D@Rg\x;redacted;i$F\``xyOPEf\!D6qOqrQF51
     P10OSQ1  C2019 06 11C2B,q/ho$WtJmZdF4:vYZX4Xn+a@Wl=C09)'#KQ'\K,clickP_pvF51
     P10OSQ1  C2019 06 11Mdr,x*tVS%qs7cj4t*U-i,4L1tKkRx/$_..Ya964PyYdMc\]pLC^F51
     P10OSQ1  C2019 06 11xU3TZ$,Xg0=uQnZj*H@]'^eDAH:mkSEfyZD_m1o0agaU!+9$Kv+dF51
     P10OSQ1  C2019 06 11aP_cD,/QQ/=*j;i7'8GhYcwhere[H6_tfD8(Nwks)$4for0BT7akF51
     P10OSQ1  C2019 06 13yl,X/]mXsR,`Qxh%u3RX4WlxSd,jKQ/$Co6-S*?6%@g#bGxvyVd0F51
     P10OSQ1  C2019 06 13cfHT7y=ov2+]?i'@G*]H\YHlw2n9vZa*K:G@63t-oP-OX'Qdyyw!F51
     P10OSQ1  C2019 06 13Et4:g0NNnB;t3(Ta5J7vSI$*fB*?@_dnsX\]-dQa-F5@Oj'dnraGF51
     P10OSQ1  C2019 06 13BeRba6['uyPIX2,?P8Z]^IW39^xaW9/SX;;?+v!ZOQ)-=jm(:+fdF51
     P10OSQ1 KC2019 06 14bTW!,?2E(e#wZv(0Qb_(FGy6MGh,^,H8cID([C0aZwijN,*1,QdBH21
     P10OSQ1 KC2019 06 14Xe:FqR,@EpCCxYgcYgJnn8GTv2`explanationMP\,P,g(9aM/+qH21

Station data:
(F51) Pan-STARRS 1, Haleakala  (N20.707235 W156.255910)  US/Hawaii.
   Observers N. Primak, A. Schultz, S. Watters, J. Thiel, T. Goggia. Measurer
   PS1 Science Consortium. 1.8-m Ritchey-Chrétien + CCD.
(F52) Pan-STARRS 2, Haleakala  (N20.707384 W156.255910)  US/Hawaii. 1.8-m
   Ritchey-Chrétien + CCD.
(H21) Astronomical Research Observatory, Westfield  (N39.483057 W87.968270)
   US/Illinois. 0.76-m f/3.0 astrograph + CCD.

Orbital elements:  P10OSQ1
   Perihelion 2019 Jun 16.868814 +/- 0.197 TT = 20:51:05 (JD 2458651.368814)
Epoch 2019 Jun 14.0 TT = JDT 2458648.5   Earth MOID: 0.6957   AutoNEOCP
M 359.22968200 +/- 0.056            (J2000 ecliptic)
n   0.26851440 +/- 0.00191          Peri.   77.53979 +/- 0.16
a   2.37952895 +/- 0.0113           Node   217.44816 +/- 0.09
e   0.3034519 +/- 0.00271           Incl.   12.39410 +/- 0.014
P   3.67                   H 19.4   G  0.15   U  8.5  
q 1.65745629 +/- 0.00143    Q 3.10160161 +/- 0.0215
From 17 observations 2019 June 1-14; mean residual 0".12
Residuals in arcseconds: 
190601 F52  .05+  .12+    190609 F51  .05+  .03+    190613 F51  .18+  .07-    
190601 F52  .07-  .08-    190611 F51  .06-  .05+    190613 F51  .04+  .14-    
190601 F52  .03+  .04-    190611 F51  .14+  .20+    190613 F51  .16+  .16-    
190609 F51  .00   .02+    190611 F51  .20-  .14+    190614 H21  .03+  .05+    
190609 F51  .06-  .15-    190611 F51  .10-  .14-    190614 H21  .29-  .13+    
190609 F51  .01+  .03+    190613 F51  .17+  .06-    

Ephemerides (geocentric):
Date (UTC) HH   RA              Dec         delta   r     elong  mag " sig PA
---- -- -- --  -------------   -----------  ------ ------ -----  --- ---- ---
2019 06 15 19  21 33 46.179   +07 50 47.94  .96272 1.6575 113.8 21.9 .272 138
2019 06 15 20  21 33 48.604   +07 51 30.98  .96246 1.6575 113.8 21.9 .277 138
2019 06 15 21  21 33 51.026   +07 52 14.00  .96221 1.6575 113.8 21.9 .282 138
2019 06 15 22  21 33 53.445   +07 52 57.01  .96195 1.6575 113.8 21.9 .287 138
2019 06 15 23  21 33 55.861   +07 53 40.01  .96170 1.6575 113.9 21.9 .292 138
2019 06 16 00  21 33 58.274   +07 54 22.99  .96144 1.6575 113.9 21.9 .296 137
2019 06 16 01  21 34 00.684   +07 55 05.95  .96119 1.6575 113.9 21.9 .301 137
2019 06 16 02  21 34 03.091   +07 55 48.90  .96093 1.6575 113.9 21.9 .306 137
2019 06 16 03  21 34 05.495   +07 56 31.83  .96068 1.6575 114.0 21.9 .311 137
2019 06 16 04  21 34 07.897   +07 57 14.75  .96043 1.6575 114.0 21.9 .316 137
2019 06 16 05  21 34 10.295   +07 57 57.65  .96017 1.6575 114.0 21.9 .321 137
2019 06 16 06  21 34 12.691   +07 58 40.54  .95992 1.6575 114.0 21.9 .326 137
2019 06 16 07  21 34 15.083   +07 59 23.41  .95966 1.6575 114.0 21.9 .331 137
2019 06 16 08  21 34 17.473   +08 00 06.26  .95941 1.6575 114.1 21.9 .336 137
2019 06 16 09  21 34 19.860   +08 00 49.10  .95916 1.6575 114.1 21.9 .341 137
2019 06 16 10  21 34 22.243   +08 01 31.93  .95890 1.6575 114.1 21.9 .346 137
2019 06 16 11  21 34 24.624   +08 02 14.73  .95865 1.6575 114.1 21.9 .352 137
2019 06 16 12  21 34 27.002   +08 02 57.53  .95839 1.6575 114.2 21.9 .357 137
2019 06 16 13  21 34 29.377   +08 03 40.30  .95814 1.6575 114.2 21.8 .362 137
2019 06 16 14  21 34 31.749   +08 04 23.06  .95789 1.6575 114.2 21.8 .367 137
2019 06 16 15  21 34 34.118   +08 05 05.81  .95764 1.6575 114.2 21.8 .373 137
2019 06 16 16  21 34 36.484   +08 05 48.54  .95738 1.6575 114.2 21.8 .378 136
2019 06 16 17  21 34 38.847   +08 06 31.25  .95713 1.6575 114.3 21.8 .383 136
2019 06 16 18  21 34 41.207   +08 07 13.95  .95688 1.6575 114.3 21.8 .389 136
2019 06 16 19  21 34 43.564   +08 07 56.63  .95662 1.6575 114.3 21.8 .394 136
2019 06 16 20  21 34 45.918   +08 08 39.30  .95637 1.6575 114.3 21.8 .399 136
2019 06 16 21  21 34 48.269   +08 09 21.94  .95612 1.6575 114.4 21.8 .405 136
2019 06 16 22  21 34 50.618   +08 10 04.58  .95587 1.6575 114.4 21.8 .410 136
2019 06 16 23  21 34 52.963   +08 10 47.19  .95561 1.6575 114.4 21.8 .416 136
2019 06 17 00  21 34 55.305   +08 11 29.80  .95536 1.6575 114.4 21.8 .421 136
2019 06 17 01  21 34 57.644   +08 12 12.38  .95511 1.6575 114.4 21.8 .427 136
2019 06 17 02  21 34 59.981   +08 12 54.95  .95486 1.6575 114.5 21.8 .433 136
2019 06 17 03  21 35 02.314   +08 13 37.50  .95461 1.6575 114.5 21.8 .438 136
2019 06 17 04  21 35 04.645   +08 14 20.04  .95436 1.6575 114.5 21.8 .444 136
2019 06 17 05  21 35 06.972   +08 15 02.56  .95410 1.6575 114.5 21.8 .450 136
2019 06 17 06  21 35 09.297   +08 15 45.06  .95385 1.6575 114.6 21.8 .455 136
2019 06 17 07  21 35 11.618   +08 16 27.55  .95360 1.6575 114.6 21.8 .461 136
2019 06 17 08  21 35 13.936   +08 17 10.02  .95335 1.6575 114.6 21.8 .467 136
2019 06 17 09  21 35 16.252   +08 17 52.47  .95310 1.6575 114.6 21.8 .473 136
2019 06 17 10  21 35 18.565   +08 18 34.91  .95285 1.6575 114.6 21.8 .479 136
2019 06 17 11  21 35 20.874   +08 19 17.33  .95260 1.6575 114.7 21.8 .484 135
2019 06 17 12  21 35 23.181   +08 19 59.73  .95235 1.6575 114.7 21.8 .490 135
2019 06 17 13  21 35 25.484   +08 20 42.12  .95210 1.6575 114.7 21.8 .496 135
2019 06 17 14  21 35 27.785   +08 21 24.49  .95185 1.6575 114.7 21.8 .502 135
2019 06 17 15  21 35 30.082   +08 22 06.85  .95160 1.6575 114.8 21.8 .508 135
2019 06 17 16  21 35 32.377   +08 22 49.19  .95135 1.6575 114.8 21.8 .514 135
2019 06 17 17  21 35 34.668   +08 23 31.51  .95110 1.6575 114.8 21.8 .520 135
2019 06 17 18  21 35 36.957   +08 24 13.81  .95085 1.6575 114.8 21.8 .526 135